Location: Newark
(36.1358°N, 115.1208°W)
Time: 20:48:25
(UTC+00:00)

Vanguard 1 Rocket - Pass Details

Date: 22 February 2020
Orbit: 650 x 4226 km, 34.3° (Epoch: 09 April)

Event Time Altitude Azimuth Distance (km) Brightness Sun altitude
Rises 10:03:29 0° 246° (WSW) 5,231 - -51.0°
Reaches altitude 10° 10:07:44 10° 242° (WSW) 3,689 - -50.2°
Maximum altitude 10:15:53 56° 167° (SSE) 1,136 - -48.8°
Drops below altitude 10° 10:20:48 10° 89° (E) 2,254 - -48.0°
Exits shadow 10:22:16 - 86° (E) 2,830 10.5 -47.7°
Sets 10:22:50 0° 85° (E) 3,053 10.7 -47.6°
